CAPE
113 428 525 587 947 887 578 544 675 764 639 672 532 665 854 182 13 5 19 1697 2154 2439 2318 2663 3248 3352 3110 3113 2816 2709 2601 2307 2301 2623 2639 1948 2356 1873 1799 2079 1345 740 470
512 763 391 474 333 493 678 875 1013 944 878 566 189 28 4 16 0 0 0 19 1787 2689 2928 2945 3074 3542 3264 2595 2887 2765 2585 2512 2215 2362 2520 1843 2091 1624 1541 1735 1034 561 306
353 18 0 0 0 71 4 3 80 694 877 401 158 143 18 21 27 124 370 333 364 724 598 401 1357 2253 2649 3060 3049 2777 2536 2744 2281 2072 2396 1705 1863 1349 1271 1271 808 685 351
148 0 0 0 0 0 0 93 601 1256 799 254 36 91 140 41 92 227 253 479 21 73 63 33 284 1184 2209 2987 3060 2488 2103 2456 2474 2154 2194 1531 1751 1135 1055 921 821 666 423
87 0 0 0 0 0 240 223 358 448 410 454 402 49 10 0 0 259 231 29 19 0 0 5 24 1088 2253 2543 1894 836 1623 2162 2483 2263 1908 1443 1668 1135 866 654 512 392 221
562 0 0 0 0 2 24 254 456 242 104 203 31 11 13 55 0 25 96 211 11 147 0 0 2 153 1615 2000 698 1272 1863 1682 2130 2549 1674 1655 1637 1260 842 655 463 378 167
64 0 0 0 0 0 114 353 604 27 54 16 0 0 0 35 0 0 25 0 84 230 150 203 124 615 1429 626 696 1529 1556 1788 1940 2120 2052 1552 1371 1307 1075 858 795 363 212
302 63 0 0 0 0 35 31 527 74 3 0 62 0 0 0 24 0 11 2 4 97 137 71 401 870 333 104 1089 1497 1132 1488 1703 1980 2234 1364 1391 1430 1044 741 650 585 140
157 3 0 0 0 0 0 0 6 111 0 0 0 0 0 134 0 0 134 12 0 15 41 35 94 194 493 590 745 958 816 1202 1701 1787 2092 1775 1445 1369 1243 911 647 568 458
66 0 0 0 54 0 0 0 666 30 0 0 0 81 10 1 0 82 72 88 68 42 117 96 79 253 96 381 800 492 353 518 1148 1666 1806 1803 1334 1446 1171 1007 844 600 443
308 127 14 0 146 26 162 538 910 52 111 0 0 0 31 39 10 8 83 280 60 8 8 299 114 243 49 11 103 94 7 0 72 279 648 1222 1722 1489 1274 944 1020 693 398
676 466 65 123 112 774 962 1215 1089 934 906 285 0 23 33 35 62 40 0 6 45 117 164 1131 521 130 423 261 271 0 0 0 0 0 0 1 33 232 915 1455 959 1052 744
1139 827 819 709 850 713 847 983 844 626 759 697 459 362 368 261 387 50 0 12 0 0 5 212 315 629 481 11 0 0 0 0 0 1 0 0 1 1 0 12 535 1324 1064
801 849 871 636 778 994 1034 1155 939 708 829 689 296 7 270 453 376 131 64 133 28 0 1 71 275 427 251 2 0 0 0 0 0 0 0 0 1 3 3 2 0 127 1429
409 257 56 0 0 622 793 779 678 642 741 483 277 475 566 553 355 157 98 326 0 52 0 36 420 235 251 0 0 0 0 0 0 1 0 0 1 1 3 4 0 0 0
241 7 0 1 0 415 520 716 580 540 525 353 360 541 373 247 225 268 317 364 168 47 25 105 325 117 156 5 0 0 0 0 1 1 1 0 2 1 3 3 0 0 0
275 0 0 361 487 689 700 631 587 645 680 460 362 404 412 323 377 421 212 326 299 292 50 41 401 172 105 1 0 0 0 0 0 1 1 1 3 4 1 4 2 1 0
116 2 56 514 576 804 946 956 778 860 886 763 541 383 388 444 399 236 262 351 392 133 83 52 80 196 24 3 0 0 0 0 0 1 1 0 1 2 1 1 1 0 0
593 238 235 561 789 706 656 646 721 849 671 742 788 722 424 298 336 163 92 244 206 421 147 89 32 41 32 5 0 0 0 0 0 0 0 0 0 0 0 0 0 0 0
650 667 672 773 514 412 476 420 451 625 503 699 501 609 349 386 406 179 373 186 178 322 267 182 135 46 17 23 1 0 0 0 0 0 0 0 0 0 0 0 0 0 0
732 532 509 634 579 408 507 617 525 558 520 442 471 494 536 411 495 345 235 56 132 37 89 69 72 46 13 36 18 0 0 0 0 0 0 0 0 0 0 0 0 0 0
775 447 444 407 539 817 917 54 14 59 132 291 284 204 285 66 62 48 33 1 0 18 55 32 0 9 12 1 0 1 5 35 44 0 0 0 0 0 0 0 0 0 0
611 694 449 359 255 312 0 0 0 0 33 37 77 112 227 0 0 0 0 1 0 0 0 0 26 0 7 0 0 3 0 20 0 0 0 0 0 0 0 0 0 0 0
344 378 227 140 9 2 1 0 0 0 0 0 0 0 0 0 0 0 0 3 0 0 0 0 0 0 0 0 0 0 0 0 0 0 0 0 0 0 0 0 0 0 0
1 2 2 1 0 0 3 1 0 0 0 0 0 0 0 0 0 0 0 0 0 0 0 0 0 0 0 0 0 0 0 0 1 0 0 0 0 0 0 0 0 0 0
1 1 2 2 4 0 0 1 1 0 0 0 0 0 0 0 0 0 0 0 0 0 0 0 0 0 0 0 0 0 0 0 0 0 0 2 11 0 0 0 0 0 0
CIN
-201 -198 -202 -201 -151 -164 -208 -208 -245 -213 -211 -213 -261 -253 -208 -306 -395 -494 -429 -193 -157 -125 -102 -68 -39 -29 -35 -29 -23 -27 -23 -31 -34 -22 -3 -11 -0 -3 -9 -0 -3 -37 -46
-172 -176 -250 -291 -320 -301 -258 -198 -163 -170 -179 -202 -212 -273 -240 -340 -0 -0 -0 -467 -142 -50 -24 -20 -27 -28 -34 -48 -23 -21 -24 -25 -34 -28 -12 -21 -0 -10 -10 -0 -7 -43 -56
-232 -464 -0 -0 -0 -456 -34 -34 -356 -214 -164 -203 -133 -185 -305 -296 -227 -239 -282 -341 -357 -240 -215 -212 -17 -27 -62 -37 -20 -17 -30 -21 -26 -35 -14 -32 -2 -18 -7 -0 -5 -7 -23
-357 -0 -0 -0 -0 -0 -0 -258 -315 -255 -220 -200 -301 -251 -270 -292 -429 -391 -414 -402 -656 -629 -466 -371 -260 -64 -55 -33 -19 -31 -50 -35 -22 -28 -12 -34 -6 -27 -11 -2 -0 -0 -6
-366 -0 -0 -0 -0 -0 -390 -414 -349 -364 -355 -221 -143 -320 -198 -0 -0 -392 -379 -414 -653 -0 -0 -397 -203 -69 -26 -34 -61 -102 -70 -50 -27 -22 -22 -45 -23 -31 -22 -24 -8 -4 -0
-270 -0 -0 -0 -0 -32 -260 -430 -351 -451 -540 -438 -58 -81 -258 -433 -0 -224 -439 -406 -467 -350 -0 -81 -34 -232 -40 -38 -96 -88 -65 -70 -44 -25 -56 -41 -42 -38 -30 -12 -4 -2 -20
-363 -0 -0 -0 -0 -0 -468 -419 -327 -550 -524 -204 -0 -0 -0 -588 -1 -0 -495 -0 -453 -414 -443 -354 -318 -171 -81 -139 -136 -100 -106 -89 -68 -56 -56 -61 -76 -51 -30 -7 -0 -0 -12
-234 -348 -0 -0 -0 -0 -477 -530 -313 -418 -502 -0 -450 -0 -0 -0 -466 -0 -519 -412 -337 -413 -385 -378 -235 -139 -188 -257 -143 -130 -180 -142 -107 -76 -58 -87 -75 -50 -61 -50 -16 -0 -23
-254 -200 -0 -0 -0 -0 -0 -0 -356 -371 -0 -0 -0 -0 -0 -162 -0 -0 -241 -434 -0 -473 -465 -379 -278 -166 -222 -197 -160 -161 -205 -175 -109 -82 -74 -78 -91 -78 -57 -52 -33 -9 -0
-309 -0 -0 -0 -314 -0 -0 -0 -192 -349 -0 -0 -0 -380 -398 -22 -0 -179 -384 -311 -392 -392 -347 -335 -289 -207 -255 -233 -146 -194 -239 -220 -142 -92 -76 -64 -76 -63 -71 -67 -45 -33 -16
-230 -363 -397 -0 -274 -360 -281 -197 -155 -348 -376 -0 -0 -0 -377 -371 -357 -333 -195 -148 -263 -289 -339 -345 -287 -239 -281 -19 -262 -234 -77 -0 -254 -209 -165 -99 -43 -33 -33 -49 -25 -35 -42
-117 -183 -367 -323 -309 -167 -129 -81 -81 -109 -128 -229 -0 -83 -257 -209 -191 -270 -0 -79 -172 -140 -265 -195 -200 -223 -190 -223 -205 -0 -0 -0 -0 -0 -0 -0 -159 -181 -73 -9 -22 -8 -13
-76 -89 -139 -155 -120 -107 -91 -93 -102 -106 -100 -101 -123 -133 -160 -151 -123 -135 -0 -133 -0 -22 -42 -208 -217 -159 -187 -133 -0 -0 -0 -0 -0 -0 -0 -0 -0 -0 -0 -94 -81 -2 -0
-108 -161 -140 -143 -103 -73 -70 -69 -89 -102 -91 -87 -125 -58 -131 -117 -123 -150 -112 -105 -71 -0 -94 -138 -188 -202 -216 -17 -0 -0 -0 -0 -0 -0 -0 -0 -0 -0 -0 -0 -0 -124 -1
-178 -226 -231 -0 -0 -102 -81 -82 -68 -71 -78 -103 -128 -107 -92 -99 -119 -134 -145 -115 -6 -70 -0 -142 -112 -193 -172 -0 -0 -0 -0 -0 -0 -0 -0 -0 -0 -0 -0 -0 -0 -0 -0
-168 -272 -0 -47 -0 -125 -112 -89 -95 -103 -83 -101 -89 -77 -114 -121 -137 -126 -114 -106 -174 -145 -76 -188 -110 -208 -183 -8 -0 -0 -0 -0 -0 -0 -0 -0 -0 -0 -0 -0 -0 -0 -0
-171 -0 -0 -159 -133 -96 -88 -111 -104 -88 -83 -103 -100 -98 -95 -123 -89 -114 -118 -117 -117 -122 -71 -110 -124 -153 -142 -9 -0 -0 -0 -0 -0 -0 -0 -0 -0 -0 -0 -0 -0 -0 -0
-248 -16 -255 -118 -110 -97 -74 -69 -70 -58 -61 -61 -73 -96 -78 -90 -78 -118 -117 -65 -70 -132 -116 -98 -122 -96 -125 -9 -0 -0 -0 -0 -0 -0 -0 -0 -0 -0 -0 -0 -0 -0 -0
-126 -199 -211 -119 -107 -92 -100 -91 -79 -63 -64 -53 -45 -47 -55 -66 -62 -113 -106 -93 -98 -71 -114 -104 -89 -132 -111 -36 -0 -0 -0 -0 -0 -0 -0 -0 -0 -0 -0 -0 -0 -0 -0
-96 -97 -101 -98 -119 -114 -106 -93 -77 -67 -82 -50 -56 -49 -62 -49 -51 -98 -72 -88 -91 -76 -78 -83 -97 -112 -100 -98 -0 -0 -0 -0 -0 -0 -0 -0 -0 -0 -0 -0 -0 -0 -0
-87 -97 -81 -88 -91 -105 -106 -69 -68 -62 -63 -59 -58 -55 -46 -51 -43 -61 -71 -115 -111 -117 -105 -106 -100 -120 -97 -105 -91 -0 -0 -0 -0 -0 -0 -0 -0 -0 -0 -0 -0 -0 -0
-91 -120 -101 -82 -70 -69 -51 -170 -168 -133 -112 -73 -67 -56 -53 -121 -116 -139 -169 -40 -0 -26 -71 -64 -0 -96 -114 -9 -0 -78 -133 -82 -79 -0 -0 -0 -0 -0 -0 -0 -0 -0 -0
-108 -88 -121 -126 -130 -114 -0 -0 -0 -0 -90 -108 -96 -83 -52 -0 -0 -0 -0 -65 -0 -0 -0 -0 -89 -0 -89 -0 -0 -34 -0 -87 -0 -0 -0 -0 -0 -0 -0 -0 -0 -0 -0
-128 -122 -175 -202 -17 -0 -0 -0 -0 -0 -0 -0 -0 -0 -0 -0 -0 -0 -0 -63 -0 -0 -0 -0 -0 -0 -0 -0 -0 -0 -0 -0 -0 -0 -0 -0 -0 -0 -0 -0 -0 -0 -0
-12 -0 -0 -0 -0 -0 -0 -0 -0 -0 -0 -0 -0 -0 -0 -0 -0 -0 -0 -0 -0 -0 -0 -0 -0 -0 -0 -0 -0 -0 -0 -0 -45 -0 -0 -0 -0 -0 -0 -0 -0 -0 -0
-0 -0 -0 -0 -0 -0 -0 -0 -0 -0 -0 -0 -0 -0 -0 -0 -0 -0 -0 -0 -0 -0 -0 -0 -0 -0 -0 -0 -0 -0 -0 -0 -0 -0 -0 -0 -0 -0 -0 -0 -0 -0 -0
Wind_Speed
2 2 3 2 3 4 4 5 5 5 5 6 7 7 7 5 6 3 3 10 9 11 13 12 12 11 10 9 8 3 5 5 6 6 5 5 5 6 8 10 7 6 9
3 4 3 4 4 3 3 3 4 5 5 4 3 1 5 6 6 6 2 4 12 15 15 17 14 11 11 9 7 1 4 3 5 5 4 5 5 8 9 9 8 8 7
6 5 4 3 2 2 5 5 5 4 4 4 3 4 4 3 4 4 3 4 6 18 21 26 23 20 9 7 5 1 2 3 4 4 2 4 6 8 9 9 8 9 9
6 5 5 3 1 3 5 2 7 6 5 5 3 3 5 5 6 6 3 4 4 4 7 20 21 24 14 4 3 1 0 3 3 3 2 3 6 8 9 9 8 8 10
5 5 5 3 2 4 2 5 4 4 5 4 3 2 3 4 4 2 5 3 3 6 6 11 18 24 18 3 2 0 0 2 3 4 3 2 5 8 8 9 8 10 10
5 5 4 3 2 1 3 5 5 3 3 3 3 4 4 4 4 5 5 4 7 3 4 4 5 11 21 2 3 2 1 2 3 4 4 2 4 6 7 8 7 8 9
5 5 4 3 3 3 2 4 2 5 3 1 4 4 3 1 3 2 0 1 5 0 1 5 7 8 5 5 2 3 5 5 3 3 4 4 4 4 7 7 6 7 8
5 5 5 2 1 4 5 3 4 3 1 4 4 2 4 5 2 3 3 3 5 3 4 7 6 7 4 1 2 3 6 6 3 2 4 5 6 5 5 6 7 7 7
4 5 6 5 3 3 3 2 2 4 3 4 5 4 1 2 3 4 7 5 8 7 3 3 5 4 4 4 2 4 7 8 6 3 5 6 8 8 8 7 6 6 7
5 5 5 6 4 2 3 2 3 2 3 3 1 2 2 4 1 4 4 5 6 2 1 3 0 5 3 4 3 4 8 9 7 6 4 2 5 7 9 9 8 7 6
6 6 4 3 0 2 3 4 3 5 3 3 3 2 2 2 2 3 4 5 6 4 2 4 4 4 3 2 4 3 9 11 8 10 10 9 7 3 7 8 10 10 9
4 6 7 5 5 5 4 4 4 5 4 3 3 4 4 2 3 3 5 6 5 4 3 3 5 2 2 2 5 9 11 7 8 9 10 11 9 8 6 4 10 12 12
3 6 6 6 5 5 4 3 1 1 2 2 5 3 3 4 2 3 3 3 2 2 2 2 3 3 3 2 4 6 10 7 7 10 11 10 9 8 7 6 4 10 12
3 2 5 5 4 4 4 2 1 2 2 3 3 4 3 4 3 2 1 1 3 2 2 2 2 2 4 3 5 7 6 7 6 9 9 9 7 7 7 5 4 2 7
3 4 5 5 3 2 4 4 2 2 3 3 4 4 2 1 1 1 1 2 4 1 2 2 2 4 3 3 5 3 5 3 4 8 9 8 8 8 9 10 11 11 10
4 5 3 2 3 3 5 4 3 3 3 3 3 4 3 1 3 2 0 0 1 3 1 3 3 1 3 4 5 4 5 3 5 8 8 9 8 10 12 12 11 11 10
6 5 5 5 4 4 4 4 4 4 3 4 3 3 5 3 3 2 1 1 0 2 2 3 1 2 3 6 3 3 4 2 3 6 7 9 10 10 12 12 13 13 12
5 6 6 5 5 6 5 5 5 4 4 4 5 4 5 3 3 2 2 2 1 1 3 4 2 1 2 5 5 4 3 3 3 6 7 8 10 11 12 12 12 12 11
6 6 6 7 6 6 6 5 5 5 5 6 5 5 6 4 4 3 3 3 3 2 2 2 3 2 1 4 3 2 2 2 3 10 8 10 9 11 11 13 12 12 11
7 7 7 7 7 6 6 6 6 5 5 5 6 5 5 5 5 5 4 5 4 3 2 2 2 2 1 2 3 3 3 2 2 3 6 6 7 11 9 10 13 12 11
9 8 7 6 5 4 4 6 5 5 6 6 5 5 4 5 7 6 2 5 3 3 2 2 1 0 2 3 4 4 4 3 3 2 2 1 2 3 3 6 10 11 11
6 5 5 6 5 4 5 5 3 1 2 4 4 3 4 4 4 5 2 1 2 2 2 2 1 2 2 1 1 3 2 3 3 4 3 3 3 2 1 2 7 9 10
5 5 5 4 4 2 4 2 0 1 1 0 1 1 2 3 5 5 4 2 5 5 2 3 4 2 1 1 1 2 3 3 2 2 3 3 3 2 1 2 4 6 8
5 3 4 4 5 5 6 1 1 1 1 5 4 3 4 2 4 4 2 5 4 5 4 4 6 4 2 3 4 1 2 1 4 5 4 3 3 3 3 2 2 4 7
6 5 3 5 6 4 7 5 3 3 5 4 3 4 3 2 6 2 4 6 5 5 9 11 13 9 11 12 9 2 3 3 2 3 4 0 2 3 2 2 2 5 5
8 6 6 5 6 4 9 9 4 2 6 4 4 4 8 5 6 8 5 7 6 2 6 4 5 6 8 9 11 7 2 3 2 2 4 2 3 1 2 1 1 1 1
Wind_Direction
173 340 349 329 341 306 279 289 284 282 270 278 255 234 197 185 183 210 241 240 252 262 266 272 274 275 275 278 284 319 33 54 49 47 39 34 41 62 66 87 91 91 93
55 52 50 50 66 359 340 333 309 290 282 209 298 20 173 161 190 199 221 333 330 325 319 308 287 280 285 281 269 264 41 59 58 46 45 46 63 71 68 90 89 97 106
113 132 91 56 16 356 36 10 333 326 312 326 321 73 44 29 22 60 55 62 53 43 9 358 339 301 290 277 255 239 47 45 70 47 35 59 80 84 81 88 82 83 90
132 112 92 58 359 15 43 295 20 346 338 49 359 20 58 77 97 101 119 115 129 94 337 353 334 315 292 254 240 279 315 50 77 71 35 53 88 87 90 86 90 79 79
135 106 110 136 200 81 135 65 48 23 16 357 112 43 49 68 49 109 88 88 229 77 328 329 331 320 282 233 232 33 248 51 61 91 66 58 87 94 93 93 93 93 90
108 115 109 70 67 53 89 64 65 6 70 341 34 15 335 36 23 328 56 299 292 169 342 348 305 305 285 310 359 57 29 11 37 79 107 140 99 101 101 101 107 109 104
147 161 107 93 67 38 94 108 138 84 47 240 77 333 296 24 127 297 301 54 316 343 4 296 272 261 257 172 131 57 24 359 21 76 121 154 133 126 120 115 112 113 111
162 144 155 154 164 93 60 349 98 58 56 29 97 70 338 333 268 150 190 158 212 248 217 249 273 257 220 87 128 91 67 49 32 131 129 154 161 166 151 142 139 134 130
136 162 161 158 193 143 129 84 68 245 94 36 65 151 94 251 326 329 333 301 155 217 202 244 244 248 112 90 32 51 62 52 45 123 139 162 168 175 177 172 168 156 150
198 186 176 164 159 108 114 256 176 112 106 145 79 36 301 105 120 350 321 300 312 284 314 326 239 163 177 136 66 54 67 51 36 70 84 142 180 183 184 182 181 179 175
207 175 188 193 138 236 192 210 152 174 166 141 146 188 330 127 172 108 277 315 326 318 245 253 222 150 171 105 105 40 63 58 25 36 43 35 22 224 204 191 189 193 192
172 191 184 183 214 218 197 186 168 163 164 162 166 175 187 183 228 166 230 266 243 304 345 18 75 82 35 83 92 81 53 46 75 65 54 45 33 23 3 229 196 199 199
210 188 168 176 192 207 212 193 173 174 210 168 203 225 210 222 209 199 182 236 250 300 344 51 89 143 114 99 83 81 75 62 58 67 66 59 48 36 8 339 286 210 203
196 171 142 144 181 221 223 177 216 254 260 245 251 241 220 216 218 204 204 123 324 335 321 166 287 201 163 151 149 100 77 48 61 75 67 60 53 55 41 5 247 251 222
168 168 174 160 194 192 229 214 195 221 215 248 270 289 301 331 275 234 184 148 161 323 299 301 212 201 161 139 129 86 76 60 70 74 67 58 49 43 45 55 105 103 95
197 188 205 197 206 226 237 211 211 193 176 221 224 224 281 264 269 283 290 47 125 149 256 220 257 262 105 80 104 95 77 36 61 69 77 71 56 56 53 46 56 74 85
185 198 212 196 219 218 231 218 220 224 242 261 271 259 284 291 295 258 265 137 126 136 187 305 290 160 130 134 121 79 99 65 51 65 75 87 84 67 66 69 66 62 61
202 214 215 216 219 219 210 204 226 249 221 260 274 280 274 305 285 257 241 228 229 196 155 223 264 293 179 170 138 147 157 112 102 63 78 74 80 87 83 72 76 79 75
207 214 214 220 214 214 213 224 229 238 237 237 252 255 263 269 275 263 240 237 243 221 221 178 255 245 96 139 150 119 178 164 130 125 93 80 72 77 82 84 75 71 64
203 209 213 212 218 219 216 218 226 238 251 237 238 235 249 258 266 271 270 255 249 240 209 210 220 199 213 129 150 176 212 185 204 179 89 91 86 73 76 88 87 81 76
211 213 210 217 225 234 234 228 241 252 240 242 238 241 245 249 238 249 242 291 271 262 253 245 252 182 192 175 194 203 217 156 186 159 113 150 89 65 25 60 87 92 91
203 195 216 226 220 233 220 179 171 247 267 213 228 248 273 51 1 35 321 288 286 269 216 216 247 230 261 253 185 198 184 179 239 179 140 187 141 122 93 32 103 109 109
158 171 190 215 241 237 153 172 234 258 167 256 252 190 110 47 354 337 7 34 77 75 161 186 179 176 203 238 250 241 237 218 236 151 130 151 136 157 139 110 119 112 111
138 115 64 37 85 51 45 55 216 273 51 62 58 45 91 34 348 301 336 83 69 42 8 80 82 84 49 290 240 259 283 110 81 47 360 159 149 164 139 114 136 137 134
83 73 45 76 92 46 340 308 228 140 106 84 53 42 61 31 332 358 124 117 99 72 62 82 100 90 58 34 23 93 13 27 100 39 13 15 157 110 130 148 165 205 172
96 95 83 60 57 68 10 349 318 154 129 126 96 72 44 16 10 36 86 126 112 126 127 85 24 28 46 50 40 42 3 80 57 86 6 9 6 112 153 100 49 111 66